User: anonymous   Login
Location: Albany
(35.0170°S, 117.8920°E)
Time: 08:16:23
(UTC+08:00)
Language:

Explorer 7 - Orbit

View from above orbital plane
View from above orbital plane
View from above satellite
View from above satellite

Ground track
Ground track

The orbit data is extracted from the following two-line orbital elements,

1    22U 59009A   21125.74841804  .00000464  00000-0  57410-4 0  9999
2    22  50.2851  29.4549 0138639  50.3711 310.9377 14.95532586273557
Epoch (UTC): 05 May 2021 17:57:43
Eccentricity: 0.0138639
inclination: 50.2851°
perigee height: 484 km
apogee height: 677 km
right ascension of ascending node: 29.4549°
argument of perigee: 50.3711°
revolutions per day: 14.95532586
mean anomaly at epoch: 310.9377°
orbit number at epoch: 27355

The dashed part of the orbit path shows where the satellite is in the earth's shadow,  

DLR